Temperature
16 16 16 16 16 16 16 16 15 15 15 15 15 15 15 15 14 15 14 14 14 14 14 14 14 14 13 13 13 13 13 13 13 13 12 12 12 13 13 13 13 13 13
17 16 16 16 16 16 16 15 15 15 15 15 15 15 15 14 14 14 14 14 14 14 14 13 13 13 13 13 13 13 13 13 13 12 12 12 12 12 12 12 12 12 12
17 16 16 16 16 16 16 15 15 15 15 15 15 15 15 14 14 14 14 14 14 13 13 13 13 13 13 13 13 13 13 13 12 12 12 12 12 12 12 12 12 12 12
17 16 16 16 16 16 16 15 15 15 15 15 15 15 15 14 14 14 14 14 14 13 13 13 13 13 13 12 12 12 12 12 12 12 12 12 11 12 11 11 11 11 11
17 17 16 16 16 16 16 15 15 15 15 15 15 15 14 14 14 14 14 14 13 13 13 13 13 13 13 13 12 12 12 12 12 12 12 11 11 11 11 11 11 11 11
17 17 16 16 16 16 15 15 15 15 15 15 15 14 14 14 14 14 14 13 13 13 13 13 13 13 13 12 12 12 12 12 11 11 11 11 11 11 11 10 10 10 10
17 17 16 16 16 15 15 15 15 15 15 15 14 14 14 14 14 14 14 13 13 13 13 12 12 12 12 12 12 12 12 12 11 11 11 10 10 10 10 10 10 10 10
17 17 16 16 16 15 15 15 15 15 15 14 14 14 14 14 14 14 14 13 13 13 13 12 12 12 12 11 11 11 11 11 11 11 11 10 10 10 10 10 9 9 9
17 17 16 16 16 15 15 15 15 15 14 14 14 14 14 14 14 14 14 13 13 12 12 12 12 12 12 12 11 11 11 11 11 11 10 10 10 10 10 9 9 9 9
17 17 16 16 16 16 15 15 15 15 14 14 14 14 14 14 14 13 13 13 13 12 12 12 12 12 12 11 11 11 10 10 10 10 10 10 9 9 9 9 8 8 8
17 17 16 16 16 15 15 15 15 14 14 14 14 14 14 13 13 13 13 13 12 12 12 12 11 12 11 11 11 10 10 10 9 9 9 9 9 9 8 8 8 8 7
17 17 16 16 16 15 15 15 15 14 14 14 14 14 13 13 13 13 13 13 12 12 12 11 11 11 11 11 10 10 10 10 9 9 9 9 8 8 8 8 7 7 7
17 17 17 16 16 15 15 15 15 14 14 14 14 13 13 13 13 13 13 12 12 12 12 11 11 11 11 10 10 10 10 9 9 8 8 8 8 8 7 7 7 7 6
17 17 16 16 16 15 15 15 14 14 14 14 13 13 13 13 13 12 12 12 12 11 11 11 11 10 10 10 10 9 9 9 8 8 8 8 7 7 7 7 6 6 6
17 17 16 16 16 15 15 15 14 14 14 14 13 13 13 13 12 12 12 12 11 11 11 10 10 10 10 9 9 9 8 8 8 8 7 7 7 6 6 6 6 6 5
17 16 16 16 15 15 15 14 14 14 14 13 13 13 13 13 12 12 12 11 11 11 10 10 10 9 9 9 8 8 8 8 7 7 7 6 6 6 6 5 5 5 5
17 16 16 16 15 15 14 14 14 14 13 13 13 13 12 12 12 12 11 11 11 10 10 9 9 9 8 8 8 8 7 7 7 7 6 6 6 5 5 5 5 4 4
16 16 16 16 15 15 14 14 13 13 13 13 12 12 12 12 11 11 11 10 10 10 9 9 9 8 8 8 7 7 7 7 6 6 6 5 5 5 4 4 4 4 4
16 16 15 15 15 14 14 14 13 12 12 12 12 12 12 11 11 10 10 10 9 9 9 9 8 8 8 7 7 7 6 6 6 6 5 5 5 4 4 4 4 4 3
16 15 15 15 14 14 13 13 13 12 12 11 11 11 11 10 10 10 10 9 9 9 8 8 8 7 7 7 6 6 6 6 5 5 5 4 4 4 4 3 3 3 3
15 15 15 14 14 13 13 13 12 12 12 11 11 11 10 10 10 9 9 9 8 8 8 7 7 7 6 6 6 6 5 5 5 4 4 4 4 3 3 3 3 2 2
14 14 14 13 13 13 12 12 12 11 11 11 10 10 10 10 9 9 8 8 8 8 7 7 7 6 6 6 5 5 5 5 4 4 3 3 3 3 3 2 2 2 1
14 14 13 13 13 12 12 11 11 11 11 10 10 10 10 9 9 8 8 8 7 7 7 7 6 6 6 5 5 5 4 4 4 3 3 3 2 2 2 2 1 1 1
13 13 13 12 12 12 11 11 11 10 10 10 10 9 9 9 8 8 8 7 7 7 6 6 6 5 5 5 4 4 4 4 3 3 3 2 2 2 1 1 1 1 0
13 13 12 12 12 11 11 11 10 10 10 10 9 9 9 8 8 7 7 7 6 6 6 5 5 5 4 4 4 4 4 3 3 3 2 2 2 1 1 1 0 0 -0
12 12 12 12 11 11 11 10 10 10 9 9 9 8 8 8 7 7 6 6 6 5 5 5 4 4 4 4 3 3 3 3 3 2 2 2 1 1 1 0 0 -0 -1
Wind_Speed
10 8 8 7 6 5 4 4 4 3 3 3 3 3 3 3 3 3 2 2 2 2 2 2 2 2 1 1 1 1 1 1 1 0 1 1 1 2 2 3 3 3 3
10 9 8 7 7 6 5 5 4 4 3 3 3 3 3 2 2 2 2 2 2 2 2 2 2 2 2 1 1 1 1 1 1 1 1 1 2 2 2 3 2 3 3
10 9 9 8 8 7 6 5 5 4 4 4 3 3 3 3 2 2 2 2 2 1 1 1 2 1 1 1 0 1 0 0 1 1 1 1 1 2 2 2 2 2 2
11 11 10 9 8 8 7 6 5 5 5 4 4 3 3 3 3 2 2 2 1 1 1 1 1 1 1 1 0 1 1 1 1 1 1 1 2 2 2 3 3 2 3
12 12 11 10 9 8 7 7 6 5 5 4 3 3 3 3 2 2 2 2 1 1 1 1 1 3 5 3 2 2 1 1 1 1 2 2 2 2 3 3 4 4 3
12 12 10 10 9 9 8 8 7 6 5 5 4 4 3 3 3 2 2 2 2 2 1 1 1 1 1 1 1 3 4 3 2 2 2 3 3 3 3 4 4 4 4
12 11 11 11 10 10 9 8 8 7 6 6 5 4 4 4 5 4 4 3 2 1 2 1 1 1 1 1 2 3 1 2 3 4 4 4 5 4 5 5 5 5 6
12 12 11 11 11 10 9 9 9 8 7 6 5 5 4 4 5 5 5 4 3 2 2 2 2 2 1 1 1 1 1 1 2 3 4 5 5 5 6 6 6 6 6
12 12 12 12 11 11 10 10 8 7 7 6 5 5 5 4 6 6 6 4 3 3 2 3 3 3 1 2 3 2 2 2 0 1 3 3 4 4 5 5 5 5 6
12 12 11 11 11 11 10 10 8 7 7 6 5 5 5 4 5 6 6 4 4 3 2 2 2 3 1 2 4 3 4 3 3 2 2 3 4 2 4 5 5 5 6
11 11 11 11 11 10 9 9 8 7 7 6 6 5 5 4 5 5 5 4 4 3 3 2 1 4 3 3 5 4 3 4 4 4 3 3 3 3 3 4 4 5 6
10 11 10 10 10 9 9 8 8 8 7 7 6 5 4 4 3 4 5 5 4 4 3 2 1 3 3 3 3 2 1 3 4 3 3 3 3 3 4 4 5 5 6
11 11 10 10 9 9 9 9 8 7 7 6 6 5 5 4 4 5 5 5 4 3 2 1 1 2 2 3 4 4 4 3 3 4 4 4 4 4 4 4 5 6 7
11 11 10 10 9 9 7 7 7 7 7 7 6 6 5 4 4 4 4 4 5 4 2 3 3 2 3 2 2 3 3 3 3 4 4 4 4 4 4 4 4 4 5
11 10 10 9 9 8 7 5 6 6 6 6 6 5 5 5 3 3 3 4 3 3 3 2 3 2 2 2 2 2 2 3 3 3 4 4 4 4 4 4 4 5 6
11 10 9 8 8 7 7 5 3 2 3 3 2 3 3 2 5 5 4 3 3 4 3 3 3 2 3 3 3 3 2 3 3 3 4 4 4 4 5 4 4 5 6
11 10 8 8 8 8 7 7 6 4 4 4 4 4 3 5 6 6 5 5 5 5 3 3 3 3 3 3 3 3 3 3 3 3 4 4 4 5 5 5 5 6 6
10 9 9 8 8 8 7 7 6 6 5 3 4 5 6 6 6 6 7 5 3 4 3 3 3 3 3 3 3 3 3 3 3 3 4 4 4 5 5 6 6 6 7
9 8 8 7 7 7 7 7 6 7 5 5 4 4 6 6 6 6 7 4 3 3 3 3 2 2 2 2 2 3 3 3 4 4 4 5 5 5 6 6 7 7 7
8 8 8 8 7 7 7 7 7 7 6 5 5 4 5 5 4 4 4 3 3 3 3 3 2 2 2 2 2 3 3 3 4 4 4 5 5 6 7 8 7 7 7
8 8 9 8 7 7 7 7 7 7 6 6 5 5 6 5 5 5 4 4 3 3 3 2 2 2 2 2 2 3 4 4 4 4 5 5 5 6 6 7 7 7 7
7 8 8 8 7 7 7 7 7 6 7 6 5 5 6 5 4 4 3 3 3 3 3 2 2 2 2 2 3 3 3 4 4 4 5 5 5 6 6 6 6 6 6
8 8 8 7 7 7 7 7 6 6 6 6 5 5 5 4 4 4 3 3 3 3 2 2 2 2 2 2 3 3 3 4 4 5 5 5 5 5 6 6 7 8 7
8 8 8 8 7 7 7 7 6 6 6 6 5 5 5 4 4 4 3 3 3 2 2 2 2 3 3 2 2 3 4 4 5 5 6 6 6 6 6 6 7 8 8
7 7 7 7 7 7 7 7 7 6 6 6 5 5 4 4 4 4 3 3 3 3 3 2 2 2 2 3 3 3 3 4 5 6 6 6 6 6 6 7 7 7 8
7 7 7 6 6 7 7 7 6 6 6 5 5 5 5 4 4 4 3 3 3 3 3 2 2 2 2 3 3 2 3 4 5 6 6 5 6 6 6 6 8 7 8
Wind_Direction
189 188 183 179 177 175 172 163 159 154 156 154 151 147 136 128 118 108 95 92 81 83 81 69 65 53 61 56 35 15 358 322 298 10 42 30 7 357 12 3 1 3 42
188 186 184 179 178 182 177 170 168 164 165 163 155 155 146 140 132 128 121 112 88 70 65 66 63 77 65 47 33 39 37 349 321 317 316 356 338 346 343 343 355 7 6
185 184 184 185 185 187 182 176 174 170 166 162 159 157 153 152 144 142 139 131 108 83 60 47 47 61 65 67 32 11 0 18 310 282 325 339 312 333 328 334 342 340 334
184 185 189 192 190 188 184 180 177 174 173 170 165 167 166 164 162 159 151 149 130 104 71 40 22 11 350 360 344 339 326 305 284 286 305 308 307 317 312 318 323 328 315
186 189 192 191 188 188 184 182 178 176 179 175 171 173 175 178 179 178 170 171 172 159 135 79 47 38 23 7 348 336 317 294 285 292 301 303 305 311 314 310 309 310 307
189 191 190 190 187 188 187 184 180 180 184 183 185 184 182 180 137 166 223 188 194 200 203 200 137 136 125 127 7 357 348 317 307 298 296 299 308 306 305 299 305 308 309
192 190 187 188 189 191 188 184 185 187 189 191 196 195 198 180 158 174 210 222 220 233 235 235 218 196 225 215 173 187 217 311 302 302 303 308 310 313 304 298 302 303 303
191 189 187 187 189 191 190 189 194 196 192 197 201 202 204 192 172 184 202 218 223 229 238 243 240 246 240 269 260 266 290 297 293 282 297 308 315 316 304 299 298 291 291
191 190 188 188 188 189 191 193 195 194 194 197 200 201 204 200 181 194 212 217 219 227 236 247 250 248 132 244 255 264 274 271 155 244 306 311 332 326 309 294 297 292 295
192 192 189 187 187 190 192 190 187 189 194 196 198 204 207 212 170 190 216 217 224 227 230 234 238 252 183 233 252 263 271 280 284 265 244 242 264 264 263 278 290 291 297
185 184 183 183 185 187 188 187 186 188 190 197 199 203 206 208 178 184 211 223 227 235 239 241 223 174 206 236 265 273 291 299 288 288 291 291 287 290 284 280 286 287 290
173 175 178 180 180 182 182 185 188 187 190 197 204 206 208 203 199 185 201 229 259 240 248 251 180 139 190 231 248 258 282 279 276 280 282 287 292 295 296 297 290 282 280
170 173 176 177 178 180 182 183 185 189 196 202 205 209 209 203 187 182 196 204 221 232 242 68 90 159 194 215 212 227 240 252 266 276 283 289 294 295 298 297 289 284 282
172 173 173 175 177 179 181 186 189 192 198 202 206 209 209 204 203 188 186 180 177 194 200 157 166 192 212 229 223 221 235 254 269 276 285 289 292 292 290 288 286 286 283
174 172 173 173 171 174 175 181 191 196 201 203 204 206 207 211 189 169 196 196 195 186 184 199 212 219 236 237 236 243 247 247 254 266 276 284 288 287 287 288 287 288 287
173 173 172 171 171 172 170 162 102 149 133 163 187 210 196 154 136 156 170 165 153 163 193 217 226 240 254 259 256 253 253 263 271 276 280 284 287 289 291 293 290 287 287
177 174 172 174 175 176 176 176 169 142 124 146 163 166 167 142 146 156 157 155 166 182 213 229 233 242 253 255 259 265 270 272 272 273 278 284 288 290 292 292 291 290 291
178 172 172 175 177 180 182 183 182 178 174 166 158 162 159 154 153 155 156 156 180 205 225 230 233 240 249 256 261 266 273 273 268 271 277 282 285 287 288 288 289 292 293
175 174 175 173 175 178 179 180 182 184 184 176 164 153 153 152 153 165 180 205 207 210 217 227 232 239 249 256 264 269 272 275 276 273 274 277 281 282 283 285 287 283 283
173 165 169 171 172 175 177 180 182 183 184 185 185 173 160 168 179 182 198 210 211 214 218 221 226 236 244 251 259 267 273 277 280 279 281 282 284 284 285 287 288 289 288
172 168 168 173 177 179 181 185 185 185 186 186 187 172 173 188 194 193 196 201 206 210 215 221 224 226 238 252 263 267 273 280 283 286 288 291 293 292 292 291 290 290 292
175 174 179 181 180 182 184 187 187 187 185 183 177 169 174 195 194 195 196 198 203 209 207 211 217 224 236 246 258 269 277 283 287 288 290 292 293 293 295 295 295 296 296
175 175 176 179 179 175 180 185 185 184 182 181 176 174 181 191 192 194 195 194 196 196 193 199 212 223 232 248 258 268 276 284 288 292 292 292 294 296 296 295 295 297 296
177 178 178 178 179 181 183 185 185 183 182 181 182 182 184 188 191 191 191 190 191 194 193 200 213 228 241 256 268 279 291 300 299 294 292 291 293 294 294 294 295 296 294
181 180 180 181 181 183 183 184 184 183 182 183 184 183 184 185 186 187 187 187 190 199 206 214 216 228 246 262 276 290 313 316 306 298 294 290 290 292 294 294 293 295 296
181 181 182 181 183 184 183 183 183 181 181 181 182 183 184 185 185 184 185 189 194 199 205 213 222 234 253 268 283 302 316 310 302 296 291 290 289 292 295 292 294 293 294
Height
1559 1561 1563 1564 1565 1567 1567 1568 1568 1569 1569 1570 1570 1570 1570 1570 1570 1569 1569 1569 1569 1569 1568 1568 1567 1567 1566 1566 1565 1565 1565 1565 1564 1564 1563 1562 1560 1559 1558 1557 1555 1554 1552
1557 1559 1561 1563 1564 1566 1567 1567 1568 1569 1569 1570 1570 1570 1570 1570 1570 1570 1569 1569 1569 1569 1569 1568 1567 1567 1566 1565 1565 1565 1564 1564 1564 1563 1563 1561 1560 1558 1557 1556 1555 1553 1552
1555 1557 1559 1561 1563 1565 1566 1567 1568 1568 1569 1569 1570 1570 1570 1570 1570 1570 1570 1569 1569 1569 1569 1568 1567 1567 1566 1565 1565 1564 1564 1563 1563 1562 1561 1560 1559 1558 1556 1555 1554 1552 1551
1552 1554 1557 1559 1561 1563 1565 1566 1567 1568 1568 1569 1569 1569 1570 1570 1570 1570 1569 1569 1569 1569 1568 1567 1567 1566 1566 1565 1564 1564 1563 1563 1562 1561 1560 1559 1558 1557 1555 1554 1553 1551 1550
1549 1552 1554 1557 1559 1561 1563 1564 1565 1566 1567 1568 1568 1569 1569 1569 1569 1569 1569 1569 1568 1568 1567 1567 1566 1565 1565 1564 1563 1563 1562 1562 1561 1560 1559 1558 1557 1556 1554 1553 1551 1550 1548
1546 1549 1552 1554 1557 1558 1560 1562 1564 1565 1566 1567 1567 1568 1568 1568 1568 1568 1568 1568 1568 1567 1567 1566 1565 1564 1563 1563 1562 1561 1561 1560 1560 1559 1558 1557 1556 1554 1552 1551 1550 1548 1547
1543 1546 1549 1551 1554 1556 1558 1560 1561 1563 1564 1565 1566 1566 1567 1567 1567 1567 1567 1566 1566 1566 1565 1565 1564 1563 1562 1562 1561 1560 1559 1558 1557 1557 1556 1555 1554 1552 1551 1549 1548 1546 1544
1540 1543 1545 1548 1551 1553 1555 1557 1559 1560 1562 1563 1564 1564 1565 1565 1565 1565 1565 1565 1564 1564 1564 1563 1563 1562 1561 1560 1560 1559 1558 1556 1555 1554 1553 1552 1551 1550 1548 1547 1545 1543 1541
1537 1539 1542 1545 1547 1550 1552 1554 1556 1558 1559 1560 1561 1562 1563 1563 1563 1563 1563 1563 1563 1562 1562 1561 1561 1560 1559 1558 1558 1557 1555 1554 1553 1551 1550 1549 1547 1546 1545 1544 1542 1541 1539
1533 1536 1539 1541 1544 1546 1548 1551 1553 1555 1556 1558 1559 1560 1561 1561 1561 1561 1561 1561 1561 1560 1560 1559 1558 1558 1557 1556 1556 1555 1553 1552 1551 1549 1548 1546 1545 1543 1542 1541 1539 1538 1537
1531 1533 1536 1538 1541 1543 1546 1548 1550 1552 1554 1555 1556 1557 1558 1558 1558 1558 1558 1558 1558 1558 1558 1557 1556 1555 1554 1553 1553 1552 1551 1550 1548 1547 1545 1544 1542 1541 1539 1538 1536 1535 1533
1528 1530 1533 1536 1538 1541 1543 1545 1548 1549 1551 1552 1553 1554 1555 1555 1555 1555 1555 1555 1555 1555 1555 1554 1553 1552 1551 1550 1550 1549 1548 1546 1545 1544 1543 1541 1539 1538 1536 1534 1532 1531 1529
1525 1528 1530 1533 1536 1538 1540 1542 1544 1546 1548 1549 1550 1551 1552 1552 1552 1552 1552 1552 1552 1552 1551 1551 1550 1549 1548 1547 1546 1546 1544 1543 1542 1541 1540 1538 1536 1534 1532 1530 1528 1527 1525
1522 1525 1528 1530 1533 1535 1537 1539 1541 1543 1544 1545 1547 1548 1548 1549 1549 1549 1549 1549 1549 1548 1548 1547 1547 1546 1545 1544 1543 1542 1541 1540 1539 1538 1536 1535 1533 1530 1529 1527 1525 1523 1521
1520 1522 1525 1527 1530 1532 1534 1535 1537 1539 1540 1542 1543 1544 1545 1545 1546 1546 1546 1546 1546 1546 1545 1544 1544 1543 1542 1541 1540 1539 1538 1537 1535 1534 1533 1531 1529 1527 1525 1523 1521 1520 1518
1517 1519 1521 1524 1526 1528 1530 1532 1534 1535 1537 1538 1539 1540 1541 1542 1542 1542 1543 1543 1543 1542 1542 1541 1540 1540 1539 1538 1537 1536 1535 1533 1532 1530 1529 1527 1526 1524 1522 1520 1518 1516 1514
1514 1516 1518 1520 1523 1525 1527 1528 1530 1532 1533 1535 1536 1537 1537 1538 1539 1539 1539 1539 1539 1539 1538 1538 1537 1537 1536 1535 1534 1532 1531 1530 1528 1527 1525 1524 1522 1520 1518 1516 1514 1512 1510
1511 1513 1515 1517 1519 1521 1523 1525 1527 1528 1530 1531 1532 1533 1534 1535 1536 1536 1536 1536 1535 1535 1535 1534 1534 1533 1532 1531 1530 1529 1527 1526 1525 1523 1521 1520 1518 1516 1514 1513 1511 1508 1506
1507 1509 1511 1513 1516 1518 1520 1521 1523 1525 1527 1528 1529 1530 1530 1531 1532 1533 1532 1532 1532 1532 1531 1531 1530 1530 1529 1528 1527 1525 1524 1522 1521 1519 1517 1516 1514 1513 1510 1509 1507 1504 1502
1504 1506 1508 1510 1512 1514 1516 1518 1519 1521 1523 1524 1525 1526 1527 1528 1528 1528 1528 1528 1528 1528 1528 1528 1527 1526 1525 1524 1523 1522 1521 1519 1517 1515 1514 1512 1510 1508 1506 1504 1502 1500 1498
1500 1502 1505 1507 1509 1511 1512 1514 1515 1517 1518 1520 1521 1522 1523 1524 1524 1524 1524 1525 1525 1525 1524 1524 1523 1522 1521 1520 1519 1518 1517 1515 1514 1512 1510 1508 1506 1504 1502 1500 1498 1495 1493
1497 1498 1501 1503 1505 1507 1508 1510 1512 1513 1514 1516 1517 1518 1519 1520 1520 1521 1521 1521 1521 1521 1521 1520 1519 1519 1518 1517 1516 1514 1513 1511 1510 1508 1506 1504 1502 1500 1497 1495 1493 1490 1488
1493 1495 1497 1499 1501 1503 1505 1506 1508 1509 1510 1512 1513 1514 1515 1516 1516 1517 1517 1517 1517 1517 1517 1516 1516 1515 1514 1513 1512 1510 1509 1507 1506 1504 1502 1500 1498 1495 1493 1491 1488 1486 1483
1490 1491 1493 1495 1497 1498 1500 1502 1504 1505 1506 1508 1509 1510 1511 1512 1512 1513 1513 1513 1513 1513 1513 1512 1512 1511 1510 1509 1507 1506 1505 1503 1501 1500 1498 1495 1493 1491 1488 1486 1483 1481 1478
1486 1488 1489 1491 1493 1494 1496 1498 1499 1501 1502 1503 1505 1505 1506 1507 1508 1508 1508 1509 1509 1509 1508 1508 1507 1506 1505 1504 1503 1502 1500 1499 1497 1495 1493 1491 1488 1486 1483 1481 1479 1476 1474
1482 1483 1485 1487 1489 1490 1492 1493 1495 1496 1498 1499 1500 1501 1502 1503 1503 1504 1504 1504 1504 1504 1504 1504 1503 1502 1501 1500 1498 1497 1495 1494 1492 1490 1488 1486 1483 1481 1478 1476 1474 1471 1469